[[{"header":{"parameterUnit":"m.s-1","parameterCategory":1,"la1":30.2991,"la2":30.254,"lo1":-89.0895,"lo2":-89.0444,"dy":0.0017,"dx":0.0017,"nx":28,"ny":28,"refTime":"2023-08-19T09:00:00:Z","depth":0,"parameterNumber":2,"parameterNumberName":"U-component_of_WINDS"},"data":[0,0,0,0,0,0,0,0,0,0,0,0,0,0,0,0,0,0,0,0,0,0,0,0,0,0,0,0,0,0,0,0,0,0,0,0,0,0,0,0,0,0,0,0,0,0,0,0,0,0,0,0,0,0,0,0,0,0,0.9096,0.9097,0,0.9114,0.9115,0.9115,0.908,0.9079,0.9078,0.9077,0.9097,0.9098,0.91,0,0,0,0,0,0,0,0,0,0,0,0,0,0.9033,0.9034,0.9096,0.9097,0.9097,0.9114,0.9115,0.9115,0.908,0.9079,0.9078,0.9076,0.9096,0.9098,0.91,0,0,0,0,0,0,0,0,0,0,0,0,0,0.9057,0.9035,0.9096,0.9082,0.9081,0.9114,0.9115,0.9115,0.9081,0.9079,0.9077,0.9076,0.9096,0.9098,0.91,0.915,0,0,0.9108,0.9109,0,0,0,0,0,0,0,0,0.9055,0.9059,0.9084,0.9083,0.9082,0.9093,0.9099,0.9127,0.9081,0.9081,0.9077,0.9075,0.9097,0.9099,0.9107,0.9151,0.9152,0.9108,0.911,0.9111,0.9111,0,0,0,0,0,0,0,0.9054,0.9058,0.9104,0.9084,0.9083,0.9074,0.9076,0.9104,0.9098,0.9081,0.9078,0.9081,0.9096,0.9104,0.9107,0.9152,0.9108,0.911,0.9112,0.9113,0.9235,0.9237,0,0,0,0,0,0,0.9054,0.9057,0.9103,0.9104,0.9064,0.9077,0.9079,0.9091,0.9098,0.9097,0.9082,0.9079,0.9101,0.9104,0.9107,0.9164,0.9111,0.9113,0.9114,0.9233,0.9235,0.9237,0,0,0,0,0,0,0.9053,0.9058,0.9102,0.908,0.9085,0.908,0.9094,0.9093,0.91,0.9099,0.9098,0.9091,0.91,0.9104,0.9139,0.9164,0.9114,0.9116,0.9231,0.9234,0.9236,0.9278,0,0,0,0,0,0,0.9051,0.9058,0.9077,0.908,0.9086,0.9133,0.9096,0.9094,0.9104,0.9101,0.9107,0.9107,0.9099,0.9135,0.9141,0.9166,0.9118,0.9229,0.9232,0.9236,0.9274,0.9282,0.9288,0,0,0,0,0,0.9049,0.9088,0.9078,0.9083,0.9109,0.9135,0.9138,0.9127,0.9107,0.9125,0.9124,0.9107,0.9161,0.9139,0.9146,0.9172,0.9227,0.9231,0.9235,0.9271,0.928,0.9288,0,0,0,0,0,0,0.9089,0.9089,0.9077,0.9119,0.9127,0.9129,0.9152,0.9138,0.9152,0.9148,0.9135,0.9137,0.9174,0.9177,0.9153,0.9219,0.919,0.9196,0.9215,0.9224,0.9231,0.9229,0.912,0,0,0,0,0,0.9102,0.9123,0.9122,0.9159,0.9164,0.9157,0.9168,0.9159,0.9167,0.9171,0.9172,0.9181,0.9199,0.9212,0.9229,0.9275,0.9275,0.9296,0.9303,0.9308,0.9313,0.9335,0.9344,0.9251,0.9251,0.9251,0,0,0.9131,0.9133,0.9147,0.9167,0.9172,0.9194,0.916,0.9185,0.92,0.9174,0.9207,0.9208,0.9217,0.9257,0.9274,0.926,0.9339,0.9314,0.9318,0.932,0.934,0.9349,0.9357,0.9254,0.9253,0.9253,0,0,0.9193,0.9198,0.9228,0.9234,0.9241,0.9237,0.9244,0.9248,0.9247,0.928,0.926,0.9278,0.9311,0.9318,0.9326,0.9389,0.9373,0.9395,0.9431,0.9453,0.946,0.9466,0.9487,0.9495,0.94,0.94,0.94,0,0.9228,0.9259,0.9246,0.9271,0.928,0.9256,0.9286,0.9293,0.9306,0.9313,0.9297,0.9336,0.9341,0.9381,0.9396,0.9403,0.9411,0.9394,0.946,0.9466,0.9472,0.9492,0.95,0.9403,0.9402,0.9402,0.9402,0,0.93,0.9321,0.9345,0.9357,0.9369,0.9397,0.9388,0.9401,0.9391,0.9388,0.942,0.9425,0.9441,0.9451,0.9442,0.9489,0.9479,0.9462,0.9433,0.9484,0.9502,0.951,0.9406,0.9405,0.9404,0.9404,0,0,0.9388,0.9391,0.94,0.9404,0.9411,0.9427,0.9454,0.9469,0.948,0.949,0.9511,0.9539,0.9522,0.9531,0.9522,0.9542,0.9589,0.9522,0.9522,0.9533,0.964,0.9652,0.9661,0.9579,0.9581,0.9582,0.9639,0,0.9448,0.9492,0.9481,0.9525,0.9544,0.9522,0.9544,0.9551,0.9548,0.9564,0.9562,0.9581,0.9558,0.9563,0.9582,0.958,0.9611,0.9576,0.9598,0.9599,0.9595,0.9671,0.9684,0.9738,0.9646,0.9647,0.9648,0,0.9525,0.9536,0.9581,0.9582,0.959,0.9611,0.9623,0.9639,0.9645,0.9642,0.9651,0.9638,0.9664,0.9635,0.967,0.9646,0.9655,0.9655,0.9657,0.9658,0.9626,0.9672,0.9755,0.9762,0.966,0.9659,0.9658,0,0.9582,0.9609,0.9639,0.9643,0.9646,0.9661,0.9663,0.9668,0.9677,0.9688,0.9694,0.9709,0.9716,0.9728,0.9719,0.9699,0.9755,0.9726,0.9752,0.9752,0.9764,0.9763,0.9847,0.9772,0.9772,0.9772,0.9771,0,0.9649,0.9678,0.9664,0.9683,0.9713,0.97,0.9731,0.9731,0.9735,0.9752,0.9735,0.9752,0.974,0.9756,0.9749,0.9778,0.9782,0.978,0.9777,0.9781,0.9781,0.9785,0.9781,0.9774,0.9773,0.9773,0.9772,0,0.9718,0.9711,0.9742,0.9741,0.9742,0.9764,0.9764,0.9781,0.9777,0.98,0.9804,0.9798,0.9816,0.9808,0.9828,0.9823,0.9859,0.9853,0.9857,0.9855,0.9881,0.9878,0.997,0.998,0.99,0.99,0.9901,0,0.9761,0.9782,0.9784,0.9794,0.9797,0.9814,0.9822,0.981,0.9821,0.9828,0.9844,0.986,0.9872,0.9902,0.9899,0.9914,0.9907,0.9938,0.9909,0.991,0.9905,0.9903,0.9905,0.9943,0.9944,0.9945,0.9946,0,0.9838,0.9832,0.9846,0.9858,0.9868,0.9878,0.9885,0.9894,0.9882,0.9895,0.9912,0.9921,0.994,0.9956,0.9968,0.997,0.9956,0.9955,0.9961,0.9964,0.9964,0.9963,0.9871,0.9952,0.9952,0.9951,0.9951,0.9951,0.9894,0.9911,0.9914,0.9929,0.9933,0.994,0.9955,0.9952,0.9966,0.998,0.9972,0.9992,0.9997,1.0011,1.0016,1.0031,1.0019,1.0029,1.0031,1.0033,1.0036,0.9963,1.0033,1.0033,1.0033,1.0033,1.0033,0,0.9968,0.9968,0.9982,0.9992,1.0004,0.9989,0.9996,1.0007,1.0024,1.0029,1.0041,1.006,1.0075,1.0073,1.0087,1.01,1.0093,1.0103,1.0102,1.0102,1.0047,1.0039,1.0108,1.0108,1.0108,1.0108,1.0108,1.0108,1.0008,1.0034,1.0029,1.0058,1.0058,1.0077,1.0082,1.0088,1.0092,1.0114,1.0125,1.0124,1.0126,1.014,1.0152,1.0151,1.0157,1.0169,1.0166,1.0114,1.0106,1.0099,1.0091,1.0171,1.0171,1.022,1.022,1.022]},{"header":{"parameterUnit":"m.s-1","parameterCategory":1,"la1":30.2991,"la2":30.254,"lo1":-89.0895,"lo2":-89.0444,"dy":0.0017,"dx":0.0017,"nx":28,"ny":28,"refTime":"2023-08-19T09:00:00:Z","depth":0,"parameterNumber":3,"parameterNumberName":"V-component_of_WINDS"},"data":[0,0,0,0,0,0,0,0,0,0,0,0,0,0,0,0,0,0,0,0,0,0,0,0,0,0,0,0,0,0,0,0,0,0,0,0,0,0,0,0,0,0,0,0,0,0,0,0,0,0,0,0,0,0,0,0,0,0,0.5311,0.531,0,0.5232,0.5231,0.5231,0.5198,0.5198,0.5198,0.5198,0.5113,0.5111,0.5108,0,0,0,0,0,0,0,0,0,0,0,0,0,0.5427,0.5425,0.5311,0.531,0.5309,0.5232,0.5231,0.523,0.5198,0.5198,0.5198,0.5198,0.5114,0.5111,0.5108,0,0,0,0,0,0,0,0,0,0,0,0,0,0.5365,0.5424,0.5311,0.5283,0.528,0.5233,0.5231,0.523,0.5198,0.5198,0.5198,0.5198,0.5115,0.5111,0.5107,0.508,0,0,0.5096,0.5095,0,0,0,0,0,0,0,0,0.5369,0.5361,0.5288,0.5285,0.5282,0.5225,0.5241,0.5179,0.5198,0.5229,0.5198,0.5199,0.515,0.5143,0.5128,0.5076,0.5072,0.5096,0.5094,0.5092,0.5091,0,0,0,0,0,0,0,0.5373,0.5364,0.528,0.5287,0.5283,0.5273,0.5265,0.5229,0.5189,0.5226,0.5224,0.5215,0.5148,0.5131,0.5125,0.5071,0.5096,0.5093,0.5091,0.5089,0.4991,0.4991,0,0,0,0,0,0,0.5383,0.5368,0.5282,0.5277,0.5327,0.5271,0.5262,0.5243,0.5189,0.5181,0.5215,0.5214,0.5137,0.513,0.5122,0.5086,0.5092,0.5089,0.5087,0.4992,0.4991,0.4991,0,0,0,0,0,0,0.5385,0.5375,0.5285,0.5322,0.531,0.5269,0.5248,0.5241,0.5225,0.5181,0.5173,0.5206,0.5137,0.5127,0.5091,0.5082,0.5087,0.5084,0.4992,0.4991,0.4991,0.5013,0,0,0,0,0,0,0.5389,0.5377,0.5367,0.5322,0.5308,0.5257,0.5248,0.524,0.5219,0.5217,0.517,0.5162,0.5137,0.5096,0.5087,0.5078,0.5081,0.4993,0.4992,0.4991,0.5013,0.5013,0.5014,0,0,0,0,0,0.5393,0.5375,0.5367,0.5356,0.5295,0.5256,0.5248,0.522,0.5219,0.5208,0.5179,0.5164,0.5085,0.5093,0.5082,0.5071,0.4993,0.4992,0.4991,0.5013,0.5013,0.5014,0,0,0,0,0,0,0.5418,0.5369,0.5359,0.5326,0.5296,0.5251,0.5236,0.5222,0.519,0.5189,0.5155,0.5144,0.511,0.5087,0.5097,0.5041,0.5038,0.5035,0.5058,0.5058,0.5058,0.5064,0.5078,0,0,0,0,0,0.5421,0.5395,0.5352,0.5327,0.5313,0.5277,0.5259,0.5241,0.5207,0.5194,0.5163,0.5129,0.5097,0.5076,0.5044,0.501,0.4998,0.4997,0.4997,0.4998,0.4995,0.4974,0.4973,0.4988,0.4988,0.4988,0,0,0.5424,0.5394,0.5379,0.5332,0.5306,0.5278,0.5267,0.5238,0.5217,0.5189,0.5153,0.5129,0.5089,0.5053,0.5036,0.5033,0.4989,0.4996,0.4997,0.4994,0.4973,0.4972,0.4971,0.4987,0.4987,0.4987,0,0,0.5416,0.5391,0.5368,0.5343,0.5305,0.5281,0.5275,0.5232,0.5216,0.518,0.5158,0.5131,0.5076,0.5049,0.5028,0.501,0.4994,0.5,0.5002,0.4982,0.4981,0.4979,0.4972,0.497,0.4998,0.4998,0.4998,0,0.5425,0.5384,0.5357,0.533,0.5309,0.5284,0.5259,0.5235,0.5188,0.5173,0.5171,0.5102,0.5073,0.5031,0.5026,0.501,0.5002,0.5005,0.4983,0.4982,0.498,0.4973,0.497,0.4999,0.4999,0.4998,0.4998,0,0.5396,0.5368,0.5353,0.531,0.5288,0.5261,0.5229,0.5209,0.5192,0.5169,0.5131,0.5096,0.5056,0.5045,0.5028,0.4999,0.4999,0.499,0.4986,0.498,0.4973,0.497,0.5,0.5,0.4999,0.4999,0,0,0.5402,0.5344,0.5339,0.5319,0.5275,0.5252,0.5224,0.5187,0.517,0.5138,0.5113,0.5067,0.5059,0.5035,0.5015,0.4998,0.4985,0.4991,0.499,0.499,0.495,0.4956,0.4953,0.4974,0.4974,0.4973,0.4953,0,0.5388,0.5339,0.5313,0.5274,0.5247,0.5223,0.5199,0.5168,0.5145,0.5118,0.5091,0.506,0.5052,0.5037,0.5019,0.499,0.4976,0.4991,0.4949,0.4948,0.4959,0.495,0.4956,0.4939,0.495,0.4949,0.4949,0,0.5365,0.5335,0.5293,0.5252,0.524,0.5219,0.5182,0.5157,0.5121,0.5105,0.5079,0.5059,0.5027,0.5026,0.498,0.4991,0.4972,0.4955,0.4954,0.4948,0.4948,0.4943,0.4933,0.493,0.4944,0.4945,0.4945,0,0.5372,0.5321,0.529,0.5273,0.5225,0.521,0.5189,0.5154,0.5133,0.51,0.5086,0.505,0.503,0.5001,0.4971,0.4973,0.4928,0.4925,0.4913,0.4914,0.4904,0.4905,0.489,0.4894,0.4894,0.4894,0.4894,0,0.5358,0.5334,0.5293,0.5273,0.5245,0.5215,0.5187,0.5164,0.5133,0.5107,0.5084,0.506,0.5022,0.4993,0.4969,0.4935,0.4926,0.4911,0.4905,0.4913,0.4915,0.49,0.49,0.4893,0.4893,0.4893,0.4893,0,0.5362,0.5333,0.5297,0.5255,0.5243,0.5224,0.5187,0.5166,0.5142,0.511,0.5101,0.5062,0.5027,0.4995,0.4947,0.4931,0.4896,0.4889,0.4909,0.4905,0.4895,0.4896,0.4869,0.4864,0.4872,0.4872,0.4872,0,0.5355,0.5336,0.5291,0.5273,0.5253,0.5224,0.5203,0.5173,0.5151,0.5109,0.5093,0.5057,0.5026,0.497,0.4937,0.49,0.4891,0.4884,0.4885,0.4894,0.489,0.4891,0.4889,0.4884,0.4884,0.4885,0.4885,0,0.5345,0.5332,0.5303,0.5269,0.5245,0.5216,0.5187,0.5173,0.5137,0.5114,0.5078,0.5054,0.5007,0.497,0.493,0.4906,0.4888,0.4885,0.488,0.4887,0.4899,0.4892,0.4909,0.4885,0.4885,0.4885,0.4885,0.4885,0.5342,0.5324,0.529,0.5258,0.5233,0.5206,0.5185,0.5159,0.5129,0.5089,0.5072,0.5036,0.5,0.4944,0.4921,0.4891,0.4887,0.488,0.4878,0.4877,0.4878,0.4905,0.4883,0.4883,0.4883,0.4883,0.4883,0,0.5331,0.5308,0.5279,0.5239,0.5214,0.5202,0.5169,0.5148,0.5117,0.5085,0.5056,0.5014,0.4979,0.4943,0.4905,0.4888,0.4879,0.4879,0.4879,0.4874,0.4884,0.4892,0.4887,0.4887,0.4887,0.4887,0.4887,0.4887,0.5322,0.529,0.5273,0.5227,0.5204,0.517,0.5151,0.5126,0.5101,0.5056,0.5027,0.5004,0.4971,0.493,0.4896,0.4887,0.4873,0.4875,0.4863,0.4873,0.4873,0.4873,0.488,0.4873,0.4873,0.4855,0.4855,0.4855]}]]